Hourly Data Report for July 31, 2021

CARIBOU POINT (AUT)
NOVA SCOTIA
Current Station Operator: ECCC - MSC

45°46'00.000" N
62°41'00.000" W
2.40 m
8200774
71415
WBK

Download Data

Hourly Data (July 2021)
Hourly Data Report for July 31, 2021
TIME
LST
Temp Definition
°C
Dew Point Definition
°C
Rel Hum Definition
%
Precip. Amount Definition
mm

Wind Dir Definition
10's deg

Wind Spd Definition
km/h
Visibility Definition
km
Stn Press Definition
kPa
Hmdx Definition


Wind Chill Definition


Weather Definition


00:00 17.1 15.7 91 0.0 30 38   99.91     LegendNANA
01:00 16.0 14.7 92 0.0 27 21   99.97     LegendNANA
02:00 15.7 14.4 92 0.0 27 14   99.98     LegendNANA
03:00 15.6 14.4 93 0.0 26 8   99.96     LegendNANA
04:00 15.7 14.2 91 0.0 25 14   100.02     LegendNANA
05:00 15.7 14.4 92 0.0 26 15   100.06     LegendNANA
06:00 15.4 13.9 91 0.0 25 11   100.11     LegendNANA
07:00 16.3 13.9 85 0.0 26 14   100.14     LegendNANA
08:00 16.7 13.7 83 0.0 27 16   100.18     LegendNANA
09:00 18.4 13.3 72 0.0 25 15   100.22     LegendNANA
10:00 18.8 12.3 66 0.0 24 14   100.26     LegendNANA
11:00 18.7 12.2 66 0.0 24 17   100.29     LegendNANA
12:00 18.3 12.8 70 0.0 27 25   100.32     LegendNANA
13:00 18.5 12.4 68 0.0 26 19   100.36     LegendNANA
14:00 18.4 13.8 74 0.0 29 31   100.40     LegendNANA
15:00 20.8 13.3 62 0.0 27 26   100.41     LegendNANA
16:00 21.1 13.0 60 0.0 26 21   100.45     LegendNANA
17:00 21.0 13.5 62 0.0 27 26   100.54     LegendNANA
18:00 20.4 12.8 62 0.0 26 16   100.63     LegendNANA
19:00 19.0 12.9 68 0.0 25 15   100.69     LegendNANA
20:00 17.4 12.7 74 0.0 25 10   100.76     LegendNANA
21:00 16.4 12.2 76 0.0 25 12   100.82     LegendNANA
22:00 16.0 11.5 74 0.0 25 12   100.87     LegendNANA
23:00 15.9 11.3 74 0.0 25 12   100.89     LegendNANA

Notes on Data Quality.

Legend

  • E = Estimated
  • M = Missing
  • NA = Not Available*
  • [empty] = Indicates an unobserved value
Date modified: